Weather in Zavorovo

Russia / Moscow Oblast     55°20′38″N   38°13′44″E
temp.,
°C
wind,
m/s
gust,
m/s
humid.,
%
clouds,
%
prec.,
mm/h
press.,
hPa
HPBL,
m
16 january, sun
sun1600:00−5nw7159199 0.1 1002777
03:00−5nw71491100 0.3 1004728
06:00−4nnw71388100 0.1 1005738
09:00−4nnw61187100 0.1 1008821
12:00−4nw5987100 0.1 1009865
15:00−5wnw479069 0.1 1010227
18:00−8w5109591 0.0 1009200
21:00−8wsw5139375 0.0 1008301
17 january, mon
mon1700:00−8sw615925 0.0 1005308
03:00−8sw7169253 0.0 1002370
06:00−6sw81888100 0.0 997526
09:00−5sw91892100 0.1 993663
12:00−3sw81692100 0.4 990788
15:00−2ssw81589100 0.5 988718
18:00−2ssw71592100 0.0 986623
21:00−2ssw71494100 0.2 986602
18 january, tue
tue1800:00−1ssw61294100 0.5 986581
03:00−1sw4798100 0.7 988379
06:00−5w2695100 0.2 991125
09:00−6wnw3595100 0.2 994132
12:00−4nnw51095100 0.3 997455
15:00−6n81394100 1.1 1001601
18:00−7n81594100 0.9 1006735
21:00−9n81591100 1.3 1009580
19 january, wed
wed1900:00−11nnw7149298 0.0 1012432
03:00−13nnw5129580 0.0 1014287
06:00−15nw4109769 0.0 1016184
09:00−18nw389965 0.0 1017112
12:00−14nnw369472 0.0 1018184
15:00−12nw23955 0.0 1018100
18:00−19wsw2210060 0.0 10199
21:00−20sw2210094 0.0 101915
20 january, thu
thu2000:00−19ssw3410086 0.0 101949
03:00−18ssw4897100 0.0 101893
06:00−15ssw41090100 0.0 1017182
09:00−13s51387100 0.0 1017253
12:00−10s61483100 0.0 1016384
15:00−8s61484100 0.0 1015483
18:00−10s61486100 0.0 1015390
21:00−11s71685100 0.0 1015388